2022/12/25 00:00:00,83.5,-1.5
2022/12/25 00:10:00,83.6,-1.3
2022/12/25 00:20:00,83.5,-1.2
2022/12/25 00:30:00,83.3,-1.6
2022/12/25 00:40:00,83.2,-1.2
2022/12/25 00:50:00,83.3,-1.4
2022/12/25 01:00:00,83.2,-1.4
2022/12/25 01:10:00,83.0,-1.5
2022/12/25 01:20:00,82.7,-1.3
2022/12/25 01:30:00,82.7,-1.0
2022/12/25 01:40:00,82.4,-1.4
2022/12/25 01:50:00,82.3,-1.0
2022/12/25 02:00:00,82.1,-1.4
2022/12/25 02:10:00,81.9,-1.2
2022/12/25 02:20:00,81.7,-1.2
2022/12/25 02:30:00,81.7,-1.3
2022/12/25 02:40:00,81.7,-1.2
2022/12/25 02:50:00,81.5,-1.7
2022/12/25 03:00:00,81.4,-1.4
2022/12/25 03:10:00,81.3,-1.1
2022/12/25 03:20:00,81.2,-1.0
2022/12/25 03:30:00,80.9,-1.1
2022/12/25 03:40:00,80.8,-1.3
2022/12/25 03:50:00,80.7,-1.2
2022/12/25 04:00:00,80.6,-1.1
2022/12/25 04:10:00,80.5,-1.1
2022/12/25 04:20:00,80.5,-1.3
2022/12/25 04:30:00,80.3,-1.2
2022/12/25 04:40:00,80.2,-1.4
2022/12/25 04:50:00,80.3,-1.7
2022/12/25 05:00:00,80.2,-1.5
2022/12/25 05:10:00,80.1,-1.5
2022/12/25 05:20:00,79.9,-1.4
2022/12/25 05:30:00,79.8,-1.5
2022/12/25 05:40:00,79.8,-1.2
2022/12/25 05:50:00,79.5,-1.2
2022/12/25 06:00:00,79.5,-1.1
2022/12/25 06:10:00,79.4,-1.1
2022/12/25 06:20:00,79.3,-0.9
2022/12/25 06:30:00,79.3,-1.1
2022/12/25 06:40:00,79.4,-1.3
2022/12/25 06:50:00,79.2,-0.8
2022/12/25 07:00:00,79.0,-1.2
2022/12/25 07:10:00,79.0,-1.2
2022/12/25 07:20:00,79.0,-1.1
2022/12/25 07:30:00,78.9,-1.2
2022/12/25 07:40:00,78.9,-1.1
2022/12/25 07:50:00,78.8,-1.2
2022/12/25 08:00:00,78.6,-0.9
2022/12/25 08:10:00,78.5,-1.2
2022/12/25 08:20:00,78.4,-0.7
2022/12/25 08:30:00,78.4,-0.8
2022/12/25 08:40:00,78.2,-0.7
2022/12/25 08:50:00,78.1,-0.4
2022/12/25 09:00:00,78.0,-0.6
2022/12/25 09:10:00,77.9,-0.1
2022/12/25 09:20:00,77.8, 0.1
2022/12/25 09:30:00,77.8,-0.6
2022/12/25 09:40:00,77.6,-0.6
2022/12/25 09:50:00,77.5,-0.8
2022/12/25 10:00:00,77.5,-1.2
2022/12/25 10:10:00,77.4,-0.4
2022/12/25 10:20:00,77.3,-1.0
2022/12/25 10:30:00,77.3,-1.1
2022/12/25 10:40:00,77.4,-1.0
2022/12/25 10:50:00,77.2,-0.9
2022/12/25 11:00:00,77.0,-0.7
2022/12/25 11:10:00,77.0, 0.6
2022/12/25 11:20:00,76.9, 1.7
2022/12/25 11:30:00,76.8, 2.2
2022/12/25 11:40:00,76.6, 1.8
2022/12/25 11:50:00,76.3, 1.9
2022/12/25 12:00:00,76.2, 2.4
2022/12/25 12:10:00,76.2, 1.1
2022/12/25 12:20:00,76.1, 1.3
2022/12/25 12:30:00,76.1, 0.7
2022/12/25 12:40:00,76.1, 2.4
2022/12/25 12:50:00,75.8, 2.6
2022/12/25 13:00:00,75.6, 2.8
2022/12/25 13:10:00,75.6, 2.6
2022/12/25 13:20:00,75.4, 1.9
2022/12/25 13:30:00,75.3, 1.8
2022/12/25 13:40:00,75.0, 0.8
2022/12/25 13:50:00,74.8, 1.4
2022/12/25 14:00:00,74.8, 1.6
2022/12/25 14:10:00,74.7, 0.9
2022/12/25 14:20:00,74.6, 0.9
2022/12/25 14:30:00,74.6, 1.0
2022/12/25 14:40:00,74.6, 2.0
2022/12/25 14:50:00,74.4, 2.4
2022/12/25 15:00:00,74.4, 2.3
2022/12/25 15:10:00,74.4, 2.6
2022/12/25 15:20:00,74.3, 1.5
2022/12/25 15:30:00,74.3, 1.8
2022/12/25 15:40:00,74.2, 1.3
2022/12/25 15:50:00,74.0, 0.6
2022/12/25 16:00:00,73.9, 1.2
2022/12/25 16:10:00,73.9, 0.9
2022/12/25 16:20:00,73.8, 0.8
2022/12/25 16:30:00,73.7, 1.1
2022/12/25 16:40:00,73.6, 1.1
2022/12/25 16:50:00,73.6, 0.8
2022/12/25 17:00:00,73.5, 0.4
2022/12/25 17:10:00,73.6,-0.2
2022/12/25 17:20:00,73.4, 0.0
2022/12/25 17:30:00,73.3,-0.1
2022/12/25 17:40:00,73.1,-0.1
2022/12/25 17:50:00,73.0,-0.4
2022/12/25 18:00:00,73.4,-0.4
2022/12/25 18:10:00,73.9,-0.6
2022/12/25 18:20:00,74.2,-0.7
2022/12/25 18:30:00,74.6,-0.8
2022/12/25 18:40:00,75.8,-0.8
2022/12/25 18:50:00,76.4,-1.1
2022/12/25 19:00:00,76.8,-0.8
2022/12/25 19:10:00,77.2,-0.7
2022/12/25 19:20:00,77.7,-0.6
2022/12/25 19:30:00,77.8,-0.6
2022/12/25 19:40:00,77.7,-0.5
2022/12/25 19:50:00,77.6,-0.7
2022/12/25 20:00:00,77.4,-1.0
2022/12/25 20:10:00,77.6,-0.7
2022/12/25 20:20:00,77.6,-0.6
2022/12/25 20:30:00,77.5,-1.0
2022/12/25 20:40:00,77.3,-0.8
2022/12/25 20:50:00,77.1,-0.6
2022/12/25 21:00:00,77.1,-0.9
2022/12/25 21:10:00,77.0,-0.8
2022/12/25 21:20:00,76.9,-1.0
2022/12/25 21:30:00,76.6,-1.4
2022/12/25 21:40:00,76.7,-1.1
2022/12/25 21:50:00,76.7,-1.0
2022/12/25 22:00:00,76.6,-1.2
2022/12/25 22:10:00,76.5,-1.3
2022/12/25 22:20:00,76.5,-1.2
2022/12/25 22:30:00,76.3,-1.2
2022/12/25 22:40:00,76.2,-1.7
2022/12/25 22:50:00,76.1,-1.5
2022/12/25 23:00:00,76.1,-1.3
2022/12/25 23:10:00,76.0,-1.3
2022/12/25 23:20:00,75.9,-1.3
2022/12/25 23:30:00,75.8,-1.0
2022/12/25 23:40:00,75.7,-2.0
2022/12/25 23:50:00,75.6,-1.7
